[[{"header":{"parameterUnit":"m.s-1","parameterCategory":1,"la1":30.2991,"la2":30.254,"lo1":-89.0895,"lo2":-89.0444,"dy":0.0017,"dx":0.0017,"nx":28,"ny":28,"refTime":"2024-03-20T09:00:00:Z","depth":0,"parameterNumber":2,"parameterNumberName":"U-component_of_WINDS"},"data":[0,0,0,0,0,0,0,0,0,0,0,0,0,0,0,0,0,0,0,0,0,0,0,0,0,0,0,0,0,0,0,0,0,0,0,0,0,0,0,0,0,0,0,0,0,0,0,0,0,0,0,0,0,0,0,0,0,0,0.8773,0.8774,0,0.8848,0.8849,0.885,0.8878,0.8877,0.8877,0.8877,0.8957,0.8959,0.8962,0,0,0,0,0,0,0,0,0,0,0,0,0,0.8655,0.8657,0.8773,0.8774,0.8775,0.8848,0.8849,0.885,0.8878,0.8877,0.8877,0.8877,0.8956,0.8959,0.8962,0,0,0,0,0,0,0,0,0,0,0,0,0,0.8716,0.8658,0.8773,0.8797,0.88,0.8848,0.8849,0.8851,0.8878,0.8877,0.8877,0.8877,0.8955,0.8959,0.8962,0.8992,0,0,0.8973,0.8975,0,0,0,0,0,0,0,0,0.8712,0.872,0.8793,0.8796,0.8799,0.8853,0.8837,0.8898,0.8878,0.8848,0.8877,0.8876,0.8923,0.8929,0.8944,0.8996,0.8999,0.8974,0.8976,0.8977,0.8978,0,0,0,0,0,0,0,0.8708,0.8717,0.8803,0.8794,0.8798,0.8805,0.8813,0.8849,0.8887,0.8851,0.8853,0.8862,0.8925,0.8941,0.8946,0.9001,0.8973,0.8977,0.8979,0.898,0.908,0.9081,0,0,0,0,0,0,0.8699,0.8713,0.8801,0.8805,0.8754,0.8808,0.8817,0.8836,0.8887,0.8894,0.8862,0.8863,0.8935,0.8942,0.8949,0.8987,0.8977,0.8981,0.8983,0.908,0.908,0.9081,0,0,0,0,0,0,0.8697,0.8707,0.8798,0.876,0.8772,0.881,0.8832,0.8838,0.8854,0.8895,0.8902,0.8871,0.8935,0.8944,0.8981,0.899,0.8982,0.8985,0.9079,0.908,0.9081,0.9064,0,0,0,0,0,0,0.8693,0.8706,0.8717,0.876,0.8774,0.8827,0.8832,0.884,0.886,0.8862,0.8906,0.8913,0.8935,0.8976,0.8985,0.8995,0.8988,0.9078,0.9079,0.908,0.9063,0.9064,0.9064,0,0,0,0,0,0.8689,0.871,0.8718,0.8728,0.8789,0.8828,0.8836,0.8861,0.886,0.8872,0.8899,0.8911,0.8988,0.8979,0.899,0.9001,0.9078,0.9079,0.908,0.9063,0.9064,0.9064,0,0,0,0,0,0,0.8669,0.8716,0.8725,0.876,0.879,0.8832,0.8848,0.886,0.8891,0.8892,0.8922,0.8932,0.8966,0.8988,0.8977,0.9033,0.9034,0.9037,0.9017,0.9018,0.9018,0.9012,0.8991,0,0,0,0,0,0.8668,0.8695,0.8735,0.8763,0.8777,0.881,0.8828,0.8844,0.8876,0.8889,0.8918,0.8949,0.898,0.9,0.9031,0.9067,0.9077,0.908,0.908,0.908,0.9083,0.9102,0.9104,0.9085,0.9085,0.9085,0,0,0.8668,0.8697,0.8712,0.876,0.8784,0.8812,0.882,0.885,0.8871,0.8894,0.893,0.8952,0.8989,0.9025,0.9042,0.9044,0.909,0.9082,0.9081,0.9084,0.9104,0.9106,0.9107,0.9085,0.9085,0.9085,0,0,0.8681,0.8706,0.8731,0.8755,0.8792,0.8813,0.8819,0.886,0.8875,0.8912,0.893,0.8955,0.9009,0.9034,0.9054,0.9075,0.9088,0.9085,0.9086,0.9105,0.9106,0.9108,0.9115,0.9118,0.9087,0.9087,0.9087,0,0.8676,0.8718,0.8743,0.8771,0.8791,0.8812,0.8838,0.8861,0.8906,0.892,0.8921,0.8987,0.9014,0.9055,0.906,0.9076,0.9084,0.908,0.9104,0.9106,0.9108,0.9115,0.9118,0.9086,0.9087,0.9087,0.9087,0,0.871,0.8738,0.8754,0.8796,0.8818,0.8845,0.8875,0.8894,0.8909,0.893,0.8967,0.8999,0.9037,0.9048,0.9063,0.9092,0.9092,0.9098,0.9099,0.9108,0.9116,0.9119,0.9085,0.9086,0.9086,0.9086,0,0,0.8713,0.8767,0.8773,0.8792,0.8833,0.8856,0.8884,0.892,0.8936,0.8966,0.899,0.9034,0.904,0.9062,0.908,0.9097,0.9112,0.9101,0.9103,0.9102,0.9145,0.914,0.9143,0.912,0.9121,0.9121,0.9142,0,0.8731,0.8781,0.8804,0.8844,0.887,0.889,0.8915,0.8943,0.8964,0.899,0.9014,0.9044,0.9049,0.9063,0.908,0.9106,0.9121,0.9105,0.9143,0.9144,0.9133,0.9147,0.9142,0.916,0.9145,0.9146,0.9146,0,0.876,0.8789,0.8831,0.8868,0.888,0.8902,0.8936,0.8961,0.8993,0.9007,0.9032,0.9049,0.9079,0.9078,0.9121,0.9109,0.9126,0.9141,0.9143,0.9147,0.9146,0.9152,0.9166,0.9169,0.9151,0.9151,0.915,0,0.8757,0.8807,0.8838,0.8854,0.8899,0.8913,0.8933,0.8965,0.8985,0.9015,0.9028,0.9062,0.908,0.9106,0.9132,0.9129,0.9171,0.9173,0.9184,0.9183,0.9193,0.9192,0.921,0.9203,0.9203,0.9203,0.9203,0,0.8776,0.8801,0.8838,0.8857,0.8885,0.8912,0.8939,0.8961,0.8989,0.9013,0.9033,0.9055,0.9088,0.9115,0.9135,0.9167,0.9175,0.9188,0.9193,0.9186,0.9184,0.9198,0.9197,0.9204,0.9204,0.9204,0.9204,0,0.8778,0.8804,0.8839,0.8878,0.8889,0.8908,0.8942,0.8962,0.8983,0.9013,0.9022,0.9056,0.9088,0.9116,0.9159,0.9173,0.9205,0.9212,0.9194,0.9197,0.9206,0.9205,0.9234,0.9239,0.9229,0.9229,0.9229,0,0.8788,0.8807,0.8848,0.8865,0.8884,0.8911,0.8931,0.8958,0.8978,0.9016,0.9031,0.9064,0.9092,0.9143,0.9172,0.9205,0.9212,0.922,0.9217,0.9209,0.9212,0.921,0.9212,0.922,0.922,0.922,0.922,0,0.8803,0.8814,0.8842,0.8873,0.8896,0.8922,0.8949,0.8962,0.8994,0.9016,0.9048,0.907,0.9113,0.9146,0.9182,0.9203,0.9217,0.922,0.9225,0.9218,0.9206,0.9212,0.9194,0.922,0.922,0.922,0.922,0.922,0.8809,0.8827,0.8858,0.8888,0.8911,0.8935,0.8955,0.8979,0.9006,0.9042,0.9057,0.909,0.9122,0.9171,0.9192,0.9218,0.9221,0.9227,0.9229,0.923,0.9229,0.9202,0.9225,0.9225,0.9225,0.9225,0.9225,0,0.8825,0.8846,0.8872,0.8909,0.8932,0.8942,0.8972,0.8991,0.902,0.9048,0.9075,0.9112,0.9144,0.9175,0.9208,0.9224,0.9231,0.9232,0.9231,0.9235,0.9225,0.9217,0.9225,0.9225,0.9225,0.9225,0.9225,0.9225,0.8836,0.8866,0.8881,0.8923,0.8944,0.8976,0.8993,0.9015,0.9038,0.9078,0.9104,0.9124,0.9153,0.9189,0.9218,0.9227,0.9238,0.9237,0.9247,0.9237,0.9236,0.9236,0.9229,0.9239,0.9239,0.9255,0.9256,0.9256]},{"header":{"parameterUnit":"m.s-1","parameterCategory":1,"la1":30.2991,"la2":30.254,"lo1":-89.0895,"lo2":-89.0444,"dy":0.0017,"dx":0.0017,"nx":28,"ny":28,"refTime":"2024-03-20T09:00:00:Z","depth":0,"parameterNumber":3,"parameterNumberName":"V-component_of_WINDS"},"data":[0,0,0,0,0,0,0,0,0,0,0,0,0,0,0,0,0,0,0,0,0,0,0,0,0,0,0,0,0,0,0,0,0,0,0,0,0,0,0,0,0,0,0,0,0,0,0,0,0,0,0,0,0,0,0,0,0,0,1.5771,1.5771,0,1.5738,1.5738,1.5737,1.5745,1.5745,1.5746,1.5747,1.571,1.5709,1.5707,0,0,0,0,0,0,0,0,0,0,0,0,0,1.5837,1.5836,1.5771,1.5771,1.577,1.5738,1.5738,1.5737,1.5745,1.5745,1.5746,1.5747,1.5711,1.5709,1.5707,0,0,0,0,0,0,0,0,0,0,0,0,0,1.5807,1.5835,1.5771,1.577,1.577,1.5738,1.5738,1.5737,1.5745,1.5745,1.5746,1.5747,1.5711,1.5709,1.5707,1.5673,0,0,1.57,1.5699,0,0,0,0,0,0,0,0,1.5808,1.5804,1.5771,1.577,1.577,1.5747,1.5748,1.5716,1.5744,1.5754,1.5747,1.5748,1.5721,1.5718,1.571,1.5672,1.567,1.5699,1.5698,1.5697,1.5696,0,0,0,0,0,0,0,1.581,1.5806,1.5758,1.577,1.5769,1.577,1.5767,1.5742,1.5733,1.5753,1.5754,1.575,1.5721,1.5712,1.5709,1.5669,1.5699,1.5697,1.5696,1.5695,1.56,1.5599,0,0,0,0,0,0,1.5813,1.5807,1.5759,1.5757,1.5792,1.5768,1.5765,1.5753,1.5733,1.5731,1.5749,1.575,1.5716,1.5712,1.5708,1.5666,1.5697,1.5695,1.5693,1.5601,1.56,1.5599,0,0,0,0,0,0,1.5815,1.5809,1.576,1.5782,1.5776,1.5766,1.5753,1.5752,1.5743,1.573,1.5728,1.5742,1.5716,1.5711,1.5682,1.5665,1.5694,1.5692,1.5602,1.5601,1.5599,1.5582,0,0,0,0,0,0,1.5817,1.5809,1.5797,1.5782,1.5775,1.5735,1.5752,1.575,1.5739,1.574,1.5722,1.572,1.5717,1.5685,1.5679,1.5662,1.569,1.5604,1.5602,1.56,1.5584,1.558,1.5577,0,0,0,0,0,1.5819,1.5794,1.5797,1.5791,1.576,1.5735,1.573,1.5727,1.5738,1.5725,1.5716,1.5721,1.5668,1.5682,1.5675,1.5657,1.5605,1.5602,1.56,1.5586,1.5581,1.5577,0,0,0,0,0,0,1.5807,1.5792,1.5795,1.5764,1.5751,1.5736,1.572,1.5723,1.5705,1.5707,1.5703,1.5699,1.5669,1.566,1.5676,1.5623,1.5638,1.5634,1.5629,1.5624,1.5621,1.5623,1.5688,0,0,0,0,0,1.5801,1.5782,1.577,1.5744,1.5737,1.573,1.5718,1.5717,1.5703,1.5697,1.5686,1.5671,1.5651,1.5637,1.5618,1.5584,1.5579,1.5568,1.5564,1.5561,1.5557,1.5536,1.5531,1.559,1.559,1.559,0,0,1.5788,1.5777,1.5766,1.5741,1.5731,1.571,1.5725,1.5703,1.5687,1.5693,1.5664,1.5656,1.5639,1.5606,1.5591,1.5598,1.554,1.5558,1.5556,1.5553,1.5533,1.5527,1.5522,1.5589,1.5589,1.5589,0,0,1.5753,1.5744,1.5721,1.571,1.5694,1.5689,1.5683,1.5668,1.5662,1.5634,1.5637,1.5618,1.5584,1.5571,1.556,1.552,1.5522,1.5514,1.5493,1.5473,1.5468,1.5464,1.5448,1.5442,1.551,1.551,1.551,0,1.5738,1.5709,1.5708,1.5686,1.5674,1.5679,1.5654,1.5644,1.5622,1.5613,1.5622,1.5578,1.5567,1.553,1.552,1.5512,1.5504,1.5515,1.5469,1.5465,1.5461,1.5445,1.5439,1.5509,1.5509,1.5509,1.5509,0,1.5691,1.567,1.5653,1.5632,1.5619,1.5595,1.559,1.5576,1.5576,1.557,1.554,1.5527,1.5504,1.5496,1.5495,1.5458,1.5463,1.5471,1.5485,1.5454,1.5439,1.5433,1.5507,1.5508,1.5508,1.5508,0,0,1.5646,1.5625,1.5619,1.5609,1.5591,1.5575,1.5551,1.553,1.5517,1.5502,1.5481,1.5452,1.5458,1.5445,1.5444,1.5426,1.5393,1.5436,1.5435,1.5426,1.5349,1.5342,1.5335,1.5395,1.5394,1.5393,1.5349,0,1.5609,1.5568,1.5566,1.5528,1.5508,1.5513,1.5492,1.5478,1.5471,1.5452,1.5445,1.5423,1.5435,1.5427,1.541,1.5401,1.5377,1.5404,1.5373,1.5372,1.5376,1.5328,1.532,1.528,1.5344,1.5343,1.5342,0,1.5559,1.5543,1.5503,1.5487,1.5478,1.546,1.5439,1.5422,1.5406,1.5402,1.5388,1.5389,1.5363,1.5379,1.5342,1.5361,1.5348,1.5342,1.534,1.5336,1.5354,1.532,1.5267,1.526,1.5333,1.5334,1.5335,0,1.5528,1.5496,1.5468,1.5459,1.5441,1.5427,1.5419,1.5404,1.5391,1.5373,1.5364,1.5343,1.5331,1.5314,1.5308,1.5321,1.5271,1.5287,1.5265,1.5265,1.5253,1.5253,1.5195,1.5248,1.5248,1.5248,1.5249,0,1.5485,1.546,1.5454,1.5436,1.5407,1.5405,1.5377,1.5369,1.5356,1.5335,1.5338,1.5319,1.5314,1.5293,1.5289,1.5257,1.5252,1.5247,1.5246,1.5246,1.5246,1.5236,1.5238,1.5247,1.5247,1.5247,1.5248,0,1.5445,1.544,1.5409,1.5394,1.539,1.5369,1.5356,1.5338,1.5332,1.5307,1.53,1.529,1.5266,1.5259,1.523,1.5227,1.519,1.5192,1.5195,1.5195,1.5172,1.5173,1.5104,1.5093,1.5155,1.5155,1.5154,0,1.5417,1.5398,1.5381,1.5368,1.5359,1.5338,1.5325,1.5322,1.5308,1.5287,1.5272,1.5248,1.5229,1.5189,1.5178,1.5156,1.5156,1.5133,1.5153,1.5153,1.5153,1.5154,1.5151,1.5129,1.5128,1.5128,1.5127,0,1.5367,1.5366,1.5347,1.5327,1.5311,1.5295,1.5279,1.5268,1.5262,1.5246,1.5222,1.5207,1.5177,1.5152,1.5129,1.5119,1.5121,1.5122,1.5115,1.5114,1.5115,1.5112,1.5183,1.5123,1.5123,1.5124,1.5124,1.5124,1.5331,1.5313,1.5298,1.5277,1.5265,1.525,1.5232,1.5224,1.5204,1.518,1.5179,1.5152,1.5135,1.5105,1.5093,1.5071,1.5077,1.5068,1.5065,1.5063,1.506,1.5121,1.5067,1.5067,1.5067,1.5067,1.5067,0,1.5279,1.527,1.525,1.5228,1.5211,1.5217,1.5199,1.5184,1.516,1.5145,1.5126,1.5097,1.5073,1.5061,1.5036,1.5021,1.5021,1.5014,1.5014,1.5011,1.5056,1.5063,1.5014,1.5014,1.5014,1.5014,1.5014,1.5014,1.525,1.522,1.5217,1.518,1.5171,1.5145,1.5134,1.512,1.5107,1.5075,1.5056,1.5048,1.5033,1.5008,1.4986,1.4983,1.4973,1.4965,1.4962,1.5003,1.5009,1.5014,1.502,1.4963,1.4963,1.4919,1.4918,1.4918]}]]